Flag for Switzerland Weather past 2 weeks in Liestal, Basel-Land, Switzerland

Now
32 °F

Passing clouds.


Feels Like: 32 °F
Forecast: 28 / 39 °F
Wind: 1 mph from North

Location: Bale-Mulhouse

Current Time: Jan 26, 2015 at 1:42:49 AM

Latest Report: Jan 26, 2015 at 1:00 AM


Visibility: 5 mi

Pressure: 30.39 "Hg

Humidity: 93%

Dew point: 30 °F

Location of LiestalLocation

Historic Weather in Liestal — Graph

°F

Liestal temperature yesterday

Maximum temperature yesterday: 37 °F (at 12:30 PM)
Minimum temperature yesterday: 32 °F (at 12:00 AM)
Average temperature yesterday: 35 °F

Past Weeks' High & Low Weather Summary

 TemperatureHumidityPressure
High61 °F (Jan 13, 3:00 PM)100% (Jan 11, 4:30 AM)30.48 "Hg (Jan 11, 4:30 AM)
Low27 °F (Jan 18, 4:30 AM)36% (Jan 13, 3:00 PM)29.71 "Hg (Jan 16, 2:30 PM)
Average38 °F86%30.03 "Hg
* Reported Midnight between Jan 10 and Jan 11 — Jan 26 12:30 AM, Liestal, Weather by CustomWeather, © 2014

Note: Actual official high and low records may vary slightly from our data, if they occured in-between our weather recording intervals... More about our weather records

Advertising

Liestal weather history for previous 24 hours

 ConditionsComfort  
Time TempWeatherWind HumidityBarometerVisibility
12:30 AM
Jan 26
32 °FClear.1 mph93%30.39 "Hg6 mi
12:00 AM32 °FPartly cloudy.No wind93%30.39 "HgN/A
11:30 PM
Jan 25
34 °FPassing clouds.1 mph87%30.39 "HgN/A
11:00 PM34 °FPartly cloudy.No wind87%30.39 "HgN/A
10:30 PM34 °FPartly cloudy.2 mph87%30.42 "HgN/A
10:00 PM34 °FPassing clouds.5 mph87%30.42 "HgN/A
9:30 PM34 °FPassing clouds.5 mph93%30.42 "HgN/A
9:00 PM34 °FPassing clouds.5 mph93%30.42 "HgN/A
8:30 PM34 °FPassing clouds.2 mph93%30.42 "HgN/A
8:00 PM34 °FPassing clouds.3 mph93%30.42 "HgN/A
7:30 PM36 °FPassing clouds.5 mph87%30.42 "HgN/A
7:00 PM36 °FPassing clouds.3 mph87%30.42 "HgN/A
6:30 PM36 °FPassing clouds.2 mph81%30.42 "HgN/A
6:00 PM36 °FPassing clouds.2 mph81%30.42 "HgN/A
5:30 PM36 °FPassing clouds.3 mph81%30.42 "HgN/A
5:00 PM37 °FPartly sunny.3 mph75%30.39 "HgN/A
4:30 PM37 °FPartly sunny.3 mph81%30.39 "HgN/A
4:00 PM37 °FPartly sunny.5 mph75%30.39 "HgN/A
3:30 PM37 °FPartly sunny.6 mph75%30.39 "HgN/A
3:00 PM37 °FBroken clouds.6 mph81%30.39 "HgN/A
2:30 PM37 °FBroken clouds.3 mph75%30.39 "HgN/A
2:00 PM37 °FPartly sunny.5 mph81%30.39 "HgN/A
1:30 PM37 °FPartly sunny.5 mph81%30.42 "HgN/A
1:00 PM37 °FPartly sunny.6 mph75%30.42 "HgN/A
12:30 PM37 °FPartly sunny.6 mph81%30.45 "HgN/A
12:00 PM36 °FPartly sunny.7 mph87%30.45 "HgN/A
11:30 AM36 °FPartly sunny.8 mph87%30.45 "HgN/A
11:00 AM36 °FPartly sunny.7 mph87%30.45 "HgN/A
10:30 AM34 °FPartly sunny.6 mph93%30.45 "HgN/A
10:00 AM34 °FPartly sunny.5 mph93%30.42 "HgN/A
9:30 AM34 °FBroken clouds.5 mph93%30.42 "HgN/A
9:00 AM34 °FBroken clouds.7 mph93%30.42 "HgN/A
8:30 AM34 °FPartly sunny.6 mph87%30.42 "HgN/A
8:00 AM34 °FPassing clouds.5 mph87%30.39 "HgN/A
7:30 AM34 °FPassing clouds.3 mph87%30.39 "HgN/A
7:00 AM34 °FPartly cloudy.5 mph87%30.39 "HgN/A
6:30 AM34 °FPartly cloudy.5 mph87%30.36 "HgN/A
6:00 AM34 °FPassing clouds.3 mph87%30.36 "HgN/A
5:30 AM34 °FPassing clouds.3 mph87%30.36 "HgN/A
5:00 AM34 °FPassing clouds.6 mph87%30.36 "HgN/A
4:30 AM34 °FMostly cloudy.3 mph87%30.33 "HgN/A
4:00 AM34 °FMostly cloudy.5 mph87%30.33 "HgN/A
3:30 AM34 °FMostly cloudy.5 mph87%30.33 "HgN/A
3:00 AM34 °FMostly cloudy.6 mph87%30.33 "HgN/A
2:30 AM34 °FMostly cloudy.5 mph87%30.33 "HgN/A
2:00 AM34 °FOvercast.6 mph93%30.30 "HgN/A
1:30 AM32 °FMostly cloudy.6 mph100%30.30 "Hg6 mi
1:00 AM32 °FLight snow. Ice fog.7 mph100%30.30 "Hg3 mi
Weather by CustomWeather, © 2014

See weather overviewHow to use our weather pages